TimeEEST,TemperatureF,Dew PointF,Humidity,Sea Level PressureIn,VisibilityMPH,Wind Direction,Wind SpeedMPH,Gust SpeedMPH,PrecipitationIn,Events,Conditions,WindDirDegrees,DateUTC
12:20 AM,64.4,48.2,56,30.18,-9999.0,NNW,6.9,-,N/A,,Unknown,340,2012-09-30 21:20:00
12:50 AM,64.4,48.2,56,30.18,-9999.0,NNW,6.9,-,N/A,,Unknown,330,2012-09-30 21:50:00
1:20 AM,64.4,48.2,56,30.18,-9999.0,North,6.9,-,N/A,,Unknown,10,2012-09-30 22:20:00
1:50 AM,64.4,48.2,56,30.18,-9999.0,North,5.8,-,N/A,,Unknown,350,2012-09-30 22:50:00
2:20 AM,62.6,48.2,59,30.18,-9999.0,NNW,6.9,-,N/A,,Unknown,340,2012-09-30 23:20:00
2:50 AM,62.6,48.2,59,30.18,-9999.0,NNW,6.9,-,N/A,,Unknown,340,2012-09-30 23:50:00
3:20 AM,62.6,46.4,55,30.18,-9999.0,NNW,5.8,-,N/A,,Unknown,340,2012-10-01 00:20:00
3:50 AM,62.6,46.4,55,30.18,-9999.0,NNW,6.9,-,N/A,,Unknown,340,2012-10-01 00:50:00
4:20 AM,62.6,46.4,55,30.18,-9999.0,NNW,6.9,-,N/A,,Unknown,340,2012-10-01 01:20:00
4:50 AM,60.8,46.4,59,30.18,-9999.0,North,5.8,-,N/A,,Unknown,350,2012-10-01 01:50:00
5:20 AM,62.6,46.4,55,30.18,-9999.0,NNW,5.8,-,N/A,,Unknown,340,2012-10-01 02:20:00
5:50 AM,60.8,46.4,59,30.18,-9999.0,NNW,4.6,-,N/A,,Unknown,330,2012-10-01 02:50:00
6:20 AM,62.6,46.4,55,30.18,-9999.0,NNW,6.9,-,N/A,,Unknown,330,2012-10-01 03:20:00
6:50 AM,60.8,46.4,59,30.18,-9999.0,NNW,5.8,-,N/A,,Unknown,340,2012-10-01 03:50:00
7:20 AM,60.8,46.4,59,30.18,-9999.0,NNW,5.8,-,N/A,,Unknown,340,2012-10-01 04:20:00
7:50 AM,60.8,46.4,59,30.18,-9999.0,WNW,4.6,-,N/A,,Unknown,290,2012-10-01 04:50:00
8:20 AM,60.8,46.4,59,30.21,-9999.0,Variable,3.5,-,N/A,,Unknown,0,2012-10-01 05:20:00
8:50 AM,64.4,48.2,56,30.21,-9999.0,North,4.6,-,N/A,,Unknown,350,2012-10-01 05:50:00
9:20 AM,69.8,48.2,46,30.21,-9999.0,Variable,1.2,-,N/A,,Unknown,0,2012-10-01 06:20:00
9:50 AM,71.6,50.0,46,30.21,-9999.0,Variable,2.3,-,N/A,,Unknown,0,2012-10-01 06:50:00
10:20 AM,71.6,50.0,46,30.21,-9999.0,Variable,2.3,-,N/A,,Unknown,0,2012-10-01 07:20:00
10:50 AM,73.4,51.8,47,30.21,-9999.0,SE,4.6,-,N/A,,Unknown,130,2012-10-01 07:50:00
11:20 AM,75.2,51.8,44,30.21,-9999.0,SE,4.6,-,N/A,,Unknown,130,2012-10-01 08:20:00
11:50 AM,77.0,51.8,41,30.21,-9999.0,Variable,3.5,-,N/A,,Unknown,0,2012-10-01 08:50:00
12:20 PM,78.8,50.0,36,30.21,-9999.0,Variable,2.3,-,N/A,,Unknown,0,2012-10-01 09:20:00
12:50 PM,80.6,50.0,34,30.18,-9999.0,Variable,3.5,-,N/A,,Unknown,0,2012-10-01 09:50:00
1:20 PM,82.4,48.2,30,30.18,-9999.0,South,4.6,-,N/A,,Unknown,170,2012-10-01 10:20:00
1:50 PM,84.2,46.4,27,30.15,-9999.0,ESE,4.6,-,N/A,,Unknown,120,2012-10-01 10:50:00
2:20 PM,84.2,48.2,29,30.15,-9999.0,Variable,3.5,-,N/A,,Unknown,0,2012-10-01 11:20:00
2:50 PM,84.2,46.4,27,30.15,-9999.0,SSE,4.6,-,N/A,,Unknown,150,2012-10-01 11:50:00
3:50 PM,86.0,44.6,23,30.15,6.2,SSE,4.6,-,N/A,,Partly Cloudy,150,2012-10-01 12:50:00
4:50 PM,86.0,42.8,22,30.12,6.2,Calm,Calm,-,N/A,,Partly Cloudy,0,2012-10-01 13:50:00
5:50 PM,84.2,42.8,23,30.12,-9999.0,SE,5.8,-,N/A,,Clear,130,2012-10-01 14:50:00
6:50 PM,78.8,46.4,32,30.12,-9999.0,Calm,Calm,-,N/A,,Clear,0,2012-10-01 15:50:00
7:50 PM,71.6,48.2,43,30.12,-9999.0,Calm,Calm,-,N/A,,Clear,0,2012-10-01 16:50:00
8:50 PM,68.0,50.0,52,30.15,-9999.0,Calm,Calm,-,N/A,,Clear,0,2012-10-01 17:50:00
9:20 PM,66.2,48.2,52,30.15,-9999.0,Variable,2.3,-,N/A,,Unknown,0,2012-10-01 18:20:00
9:50 PM,66.2,48.2,52,30.15,-9999.0,Variable,2.3,-,N/A,,Unknown,0,2012-10-01 18:50:00
10:20 PM,66.2,50.0,56,30.18,-9999.0,Variable,3.5,-,N/A,,Unknown,0,2012-10-01 19:20:00
10:50 PM,62.6,48.2,59,30.18,-9999.0,Variable,2.3,-,N/A,,Unknown,0,2012-10-01 19:50:00
11:20 PM,62.6,48.2,59,30.18,-9999.0,Variable,3.5,-,N/A,,Unknown,0,2012-10-01 20:20:00
11:50 PM,64.4,46.4,52,30.18,-9999.0,NNW,6.9,-,N/A,,Unknown,340,2012-10-01 20:50:00